Find PRSC-EO2

NORAD ID: 67746 Int'l Des: NNA 2026-027 Owner: SUPA Country: PK operational
LEOCIRCULARRETROGRADESSO

实时位置

正在加载3D地球...

关于 PRSC-EO2

正在加载描述...

即将过境

Passes for default location (London). Set your location on the main map for personalized predictions.

高度历史

Loading altitude history...

两行轨道根数

1 67746U 26027A 26107.06608758 .00004223 00000-0 20847-3 0 9998
2 67746 97.4971 235.7101 0011314 72.6210 287.6260 15.18376756 9689
Epoch: Apr 17, 2026 • Age: 13 hours

当前状态

高度 513.9 km
速度 7.61 km/s
星下点 12.92°N, 12.34°W
发射日期 Feb 12, 2026
运行时间 0.1 years
类型 other

技术详情

分类 Payload
质量 500.00 kg
干质量 500.00 kg
总质量 500.00 kg
长度 2.00 m
直径 1.50 m
跨度 8.00 m
形状 Box + 2 Pan
制造商 SUPA
平台类型 PRSC-EO
阶段状态 In Orbit
所有者/国家 SUPA/PK

Most Searched